Time,TemperatureF,DewpointF,PressureIn,WindDirection,WindDirectionDegrees,WindSpeedMPH,WindSpeedGustMPH,Humidity,HourlyPrecipIn,Conditions,Clouds,dailyrainin,SoftwareType,DateUTC
2013-09-28 00:05:00,69.4,62.0,29.91,SE,134,0.0,-999.0,76,-99.99,,,0.00,weatherlink.com 1.10,2013-09-28 05:05:00,
2013-09-28 00:20:00,69.0,62.0,29.91,ESE,120,4.0,-999.0,77,-99.99,,,0.00,weatherlink.com 1.10,2013-09-28 05:20:00,
2013-09-28 00:35:00,68.7,61.0,29.90,ESE,116,2.0,-999.0,77,-99.99,,,0.00,weatherlink.com 1.10,2013-09-28 05:35:00,
2013-09-28 00:50:00,68.5,61.0,29.89,SE,127,4.0,-999.0,78,-99.99,,,0.00,weatherlink.com 1.10,2013-09-28 05:50:00,
2013-09-28 01:05:00,68.3,61.0,29.89,ESE,109,5.0,-999.0,78,-99.99,,,0.00,weatherlink.com 1.10,2013-09-28 06:05:00,
2013-09-28 01:20:00,68.2,61.0,29.89,ESE,114,2.0,-999.0,78,-99.99,,,0.00,weatherlink.com 1.10,2013-09-28 06:20:00,
2013-09-28 01:35:00,68.0,61.0,29.88,ESE,119,4.0,-999.0,79,-99.99,,,0.00,weatherlink.com 1.10,2013-09-28 06:35:00,
2013-09-28 01:51:00,67.8,61.0,29.88,ESE,118,1.0,-999.0,79,-99.99,,,0.00,weatherlink.com 1.10,2013-09-28 06:51:00,
2013-09-28 02:06:00,67.6,61.0,29.87,ESE,113,2.0,-999.0,80,-99.99,,,0.00,weatherlink.com 1.10,2013-09-28 07:06:00,
2013-09-28 02:21:00,67.4,61.0,29.87,ESE,110,4.0,-999.0,81,-99.99,,,0.00,weatherlink.com 1.10,2013-09-28 07:21:00,
2013-09-28 02:36:00,67.2,61.0,29.88,SE,128,2.0,-999.0,81,-99.99,,,0.00,weatherlink.com 1.10,2013-09-28 07:36:00,
2013-09-28 02:51:00,67.0,61.0,29.87,ESE,121,2.0,-999.0,82,-99.99,,,0.00,weatherlink.com 1.10,2013-09-28 07:51:00,
2013-09-28 03:06:00,66.8,62.0,29.88,SE,126,4.0,-999.0,83,-99.99,,,0.00,weatherlink.com 1.10,2013-09-28 08:06:00,
2013-09-28 03:21:00,66.6,61.0,29.87,ESE,117,2.0,-999.0,83,-99.99,,,0.00,weatherlink.com 1.10,2013-09-28 08:21:00,
2013-09-28 03:36:00,66.4,62.0,29.86,ESE,113,1.0,-999.0,84,-99.99,,,0.00,weatherlink.com 1.10,2013-09-28 08:36:00,
2013-09-28 03:51:00,66.3,62.0,29.86,South,169,1.0,-999.0,85,-99.99,,,0.00,weatherlink.com 1.10,2013-09-28 08:51:00,
2013-09-28 04:06:00,66.4,62.0,29.86,ESE,117,2.0,-999.0,85,-99.99,,,0.00,weatherlink.com 1.10,2013-09-28 09:06:00,
2013-09-28 04:21:00,66.4,62.0,29.86,SE,125,1.0,-999.0,85,-99.99,,,0.00,weatherlink.com 1.10,2013-09-28 09:21:00,
2013-09-28 04:37:00,66.3,62.0,29.86,SE,127,5.0,-999.0,86,-99.99,,,0.00,weatherlink.com 1.10,2013-09-28 09:37:00,
2013-09-28 04:52:00,66.2,62.0,29.86,ESE,119,4.0,-999.0,86,-99.99,,,0.00,weatherlink.com 1.10,2013-09-28 09:52:00,
2013-09-28 05:07:00,66.3,62.0,29.86,ESE,117,0.0,-999.0,86,-99.99,,,0.00,weatherlink.com 1.10,2013-09-28 10:07:00,
2013-09-28 05:22:00,66.6,62.0,29.86,SE,127,6.0,-999.0,86,-99.99,,,0.00,weatherlink.com 1.10,2013-09-28 10:22:00,
2013-09-28 05:37:00,67.0,62.0,29.85,ESE,113,5.0,-999.0,85,-99.99,,,0.00,weatherlink.com 1.10,2013-09-28 10:37:00,
2013-09-28 05:52:00,67.3,62.0,29.85,ESE,111,4.0,-999.0,84,-99.99,,,0.00,weatherlink.com 1.10,2013-09-28 10:52:00,
2013-09-28 06:07:00,67.3,62.0,29.85,SE,124,7.0,-999.0,84,-99.99,,,0.00,weatherlink.com 1.10,2013-09-28 11:07:00,
2013-09-28 06:22:00,67.5,63.0,29.85,ESE,123,4.0,-999.0,84,-99.99,,,0.00,weatherlink.com 1.10,2013-09-28 11:22:00,
2013-09-28 06:37:00,67.3,62.0,29.85,SE,146,9.0,-999.0,84,-99.99,,,0.00,weatherlink.com 1.10,2013-09-28 11:37:00,
2013-09-28 06:52:00,67.2,62.0,29.84,SE,134,1.0,-999.0,84,-99.99,,,0.00,weatherlink.com 1.10,2013-09-28 11:52:00,
2013-09-28 07:07:00,67.2,62.0,29.84,SE,124,6.0,-999.0,84,-99.99,,,0.00,weatherlink.com 1.10,2013-09-28 12:07:00,
2013-09-28 07:22:00,67.4,62.0,29.84,ESE,114,5.0,-999.0,84,-99.99,,,0.00,weatherlink.com 1.10,2013-09-28 12:22:00,
2013-09-28 07:37:00,67.6,63.0,29.84,SE,129,8.0,-999.0,84,-99.99,,,0.00,weatherlink.com 1.10,2013-09-28 12:37:00,
2013-09-28 07:53:00,68.1,63.0,29.85,SE,125,7.0,-999.0,83,-99.99,,,0.00,weatherlink.com 1.10,2013-09-28 12:53:00,
2013-09-28 08:08:00,68.3,63.0,29.85,South,180,3.0,-999.0,83,-99.99,,,0.00,weatherlink.com 1.10,2013-09-28 13:08:00,
2013-09-28 08:23:00,68.5,63.0,29.86,SSE,148,4.0,-999.0,83,-99.99,,,0.00,weatherlink.com 1.10,2013-09-28 13:23:00,
2013-09-28 08:38:00,66.5,64.0,29.85,SE,139,8.0,-999.0,90,-99.99,,,0.09,weatherlink.com 1.10,2013-09-28 13:38:00,
2013-09-28 08:53:00,66.1,64.0,29.85,SE,144,5.0,-999.0,92,-99.99,,,0.11,weatherlink.com 1.10,2013-09-28 13:53:00,
2013-09-28 09:08:00,66.1,64.0,29.84,SE,140,8.0,-999.0,93,-99.99,,,0.12,weatherlink.com 1.10,2013-09-28 14:08:00,
2013-09-28 09:23:00,66.1,64.0,29.84,SE,134,2.0,-999.0,93,-99.99,,,0.12,weatherlink.com 1.10,2013-09-28 14:23:00,
2013-09-28 09:38:00,66.5,65.0,29.84,SSE,165,7.0,-999.0,93,-99.99,,,0.12,weatherlink.com 1.10,2013-09-28 14:38:00,
2013-09-28 09:53:00,67.5,65.0,29.84,SSE,152,17.0,-999.0,92,-99.99,,,0.12,weatherlink.com 1.10,2013-09-28 14:53:00,
2013-09-28 10:08:00,67.8,66.0,29.84,SSW,205,4.0,-999.0,92,-99.99,,,0.12,weatherlink.com 1.10,2013-09-28 15:08:00,
2013-09-28 10:23:00,68.4,66.0,29.84,SSE,155,7.0,-999.0,92,-99.99,,,0.12,weatherlink.com 1.10,2013-09-28 15:23:00,
2013-09-28 10:39:00,68.6,65.0,29.84,SE,143,6.0,-999.0,89,-99.99,,,0.12,weatherlink.com 1.10,2013-09-28 15:39:00,
2013-09-28 10:54:00,68.8,65.0,29.84,SSE,168,10.0,-999.0,88,-99.99,,,0.12,weatherlink.com 1.10,2013-09-28 15:54:00,
2013-09-28 11:09:00,68.9,65.0,29.84,SE,142,6.0,-999.0,88,-99.99,,,0.12,weatherlink.com 1.10,2013-09-28 16:09:00,
2013-09-28 11:24:00,68.6,65.0,29.84,SSW,205,7.0,-999.0,89,-99.99,,,0.12,weatherlink.com 1.10,2013-09-28 16:24:00,
2013-09-28 11:39:00,68.2,66.0,29.83,South,180,1.0,-999.0,91,-99.99,,,0.14,weatherlink.com 1.10,2013-09-28 16:39:00,
2013-09-28 11:54:00,68.0,66.0,29.84,SSW,202,7.0,-999.0,92,-99.99,,,0.15,weatherlink.com 1.10,2013-09-28 16:54:00,
2013-09-28 12:09:00,67.8,66.0,29.85,South,186,5.0,-999.0,92,-99.99,,,0.15,weatherlink.com 1.10,2013-09-28 17:09:00,
2013-09-28 12:24:00,67.5,66.0,29.85,SSE,150,10.0,-999.0,93,-99.99,,,0.17,weatherlink.com 1.10,2013-09-28 17:24:00,
2013-09-28 12:39:00,67.5,66.0,29.85,SW,225,3.0,-999.0,93,-99.99,,,0.17,weatherlink.com 1.10,2013-09-28 17:39:00,
2013-09-28 12:54:00,67.7,66.0,29.86,SW,216,6.0,-999.0,93,-99.99,,,0.17,weatherlink.com 1.10,2013-09-28 17:54:00,
2013-09-28 13:09:00,67.4,66.0,29.85,SSW,207,5.0,-999.0,94,-99.99,,,0.18,weatherlink.com 1.10,2013-09-28 18:09:00,
2013-09-28 13:24:00,59.4,57.0,29.89,WNW,282,4.0,-999.0,92,-99.99,,,0.19,weatherlink.com 1.10,2013-09-28 18:24:00,
2013-09-28 13:40:00,58.0,56.0,29.90,West,274,5.0,-999.0,94,-99.99,,,0.19,weatherlink.com 1.10,2013-09-28 18:40:00,
2013-09-28 13:55:00,57.5,56.0,29.91,WNW,290,7.0,-999.0,95,-99.99,,,0.19,weatherlink.com 1.10,2013-09-28 18:55:00,
2013-09-28 14:10:00,57.0,55.0,29.91,NW,321,0.0,-999.0,94,-99.99,,,0.19,weatherlink.com 1.10,2013-09-28 19:10:00,
2013-09-28 14:25:00,56.9,55.0,29.91,NW,314,0.0,-999.0,94,-99.99,,,0.19,weatherlink.com 1.10,2013-09-28 19:25:00,
2013-09-28 14:40:00,56.8,55.0,29.91,NW,320,0.0,-999.0,94,-99.99,,,0.21,weatherlink.com 1.10,2013-09-28 19:40:00,
2013-09-28 14:55:00,57.0,56.0,29.92,WSW,248,6.0,-999.0,95,-99.99,,,0.21,weatherlink.com 1.10,2013-09-28 19:55:00,
2013-09-28 15:10:00,57.2,56.0,29.93,NNW,340,5.0,-999.0,95,-99.99,,,0.21,weatherlink.com 1.10,2013-09-28 20:10:00,
2013-09-28 15:25:00,57.3,56.0,29.94,NW,309,0.0,-999.0,94,-99.99,,,0.21,weatherlink.com 1.10,2013-09-28 20:25:00,
2013-09-28 15:40:00,57.8,56.0,29.94,NW,320,3.0,-999.0,94,-99.99,,,0.21,weatherlink.com 1.10,2013-09-28 20:40:00,
2013-09-28 15:55:00,58.2,56.0,29.95,NW,323,3.0,-999.0,93,-99.99,,,0.21,weatherlink.com 1.10,2013-09-28 20:55:00,
2013-09-28 16:10:00,58.2,56.0,29.95,NW,311,3.0,-999.0,93,-99.99,,,0.21,weatherlink.com 1.10,2013-09-28 21:10:00,
2013-09-28 16:26:00,58.7,56.0,29.95,WNW,301,4.0,-999.0,91,-99.99,,,0.21,weatherlink.com 1.10,2013-09-28 21:26:00,
2013-09-28 16:41:00,59.4,56.0,29.96,West,274,4.0,-999.0,87,-99.99,,,0.21,weatherlink.com 1.10,2013-09-28 21:41:00,
2013-09-28 16:56:00,59.5,56.0,29.97,WNW,283,2.0,-999.0,87,-99.99,,,0.21,weatherlink.com 1.10,2013-09-28 21:56:00,
2013-09-28 17:11:00,59.6,56.0,29.97,WNW,292,5.0,-999.0,87,-99.99,,,0.21,weatherlink.com 1.10,2013-09-28 22:11:00,
2013-09-28 17:26:00,59.8,56.0,29.98,West,271,0.0,-999.0,86,-99.99,,,0.21,weatherlink.com 1.10,2013-09-28 22:26:00,
2013-09-28 17:41:00,59.8,56.0,29.98,WNW,299,0.0,-999.0,87,-99.99,,,0.21,weatherlink.com 1.10,2013-09-28 22:41:00,
2013-09-28 17:56:00,60.7,55.0,29.99,NW,311,3.0,-999.0,82,-99.99,,,0.21,weatherlink.com 1.10,2013-09-28 22:56:00,
2013-09-28 18:11:00,60.4,55.0,29.99,WNW,300,0.0,-999.0,82,-99.99,,,0.21,weatherlink.com 1.10,2013-09-28 23:11:00,
2013-09-28 18:26:00,60.2,54.0,30.00,NW,318,0.0,-999.0,80,-99.99,,,0.21,weatherlink.com 1.10,2013-09-28 23:26:00,
2013-09-28 18:41:00,60.2,54.0,30.00,WNW,300,0.0,-999.0,79,-99.99,,,0.21,weatherlink.com 1.10,2013-09-28 23:41:00,
2013-09-28 18:56:00,59.1,53.0,30.01,WNW,300,0.0,-999.0,81,-99.99,,,0.21,weatherlink.com 1.10,2013-09-28 23:56:00,
2013-09-28 19:12:00,58.2,53.0,30.01,WNW,300,0.0,-999.0,84,-99.99,,,0.21,weatherlink.com 1.10,2013-09-29 00:12:00,
2013-09-28 19:27:00,57.4,53.0,30.01,WNW,300,0.0,-999.0,85,-99.99,,,0.21,weatherlink.com 1.10,2013-09-29 00:27:00,
2013-09-28 19:42:00,56.7,54.0,30.01,WNW,300,0.0,-999.0,89,-99.99,,,0.21,weatherlink.com 1.10,2013-09-29 00:42:00,
2013-09-28 19:57:00,56.1,53.0,30.01,WNW,300,0.0,-999.0,89,-99.99,,,0.21,weatherlink.com 1.10,2013-09-29 00:57:00,
2013-09-28 20:12:00,55.1,52.0,30.02,WNW,300,0.0,-999.0,89,-99.99,,,0.21,weatherlink.com 1.10,2013-09-29 01:12:00,
2013-09-28 20:27:00,54.2,52.0,30.02,WNW,300,0.0,-999.0,92,-99.99,,,0.21,weatherlink.com 1.10,2013-09-29 01:27:00,
2013-09-28 20:42:00,53.9,52.0,30.02,WNW,300,0.0,-999.0,93,-99.99,,,0.21,weatherlink.com 1.10,2013-09-29 01:42:00,
2013-09-28 20:57:00,53.0,51.0,30.03,WNW,300,0.0,-999.0,93,-99.99,,,0.21,weatherlink.com 1.10,2013-09-29 01:57:00,
2013-09-28 21:12:00,52.7,51.0,30.04,WNW,300,0.0,-999.0,95,-99.99,,,0.21,weatherlink.com 1.10,2013-09-29 02:12:00,
2013-09-28 21:27:00,53.6,53.0,30.04,WNW,300,0.0,-999.0,96,-99.99,,,0.21,weatherlink.com 1.10,2013-09-29 02:27:00,
2013-09-28 21:43:00,53.5,52.0,30.05,WNW,300,0.0,-999.0,96,-99.99,,,0.21,weatherlink.com 1.10,2013-09-29 02:43:00,
2013-09-28 21:58:00,53.3,52.0,30.05,WNW,300,0.0,-999.0,95,-99.99,,,0.21,weatherlink.com 1.10,2013-09-29 02:58:00,
2013-09-28 22:13:00,52.4,51.0,30.06,WNW,300,0.0,-999.0,95,-99.99,,,0.21,weatherlink.com 1.10,2013-09-29 03:13:00,
2013-09-28 22:28:00,52.2,51.0,30.06,WNW,300,0.0,-999.0,96,-99.99,,,0.21,weatherlink.com 1.10,2013-09-29 03:28:00,
2013-09-28 22:43:00,52.9,52.0,30.06,WNW,300,0.0,-999.0,96,-99.99,,,0.21,weatherlink.com 1.10,2013-09-29 03:43:00,
2013-09-28 22:58:00,53.0,52.0,30.07,WNW,300,0.0,-999.0,97,-99.99,,,0.21,weatherlink.com 1.10,2013-09-29 03:58:00,
2013-09-28 23:13:00,53.1,52.0,30.07,WNW,300,0.0,-999.0,97,-99.99,,,0.21,weatherlink.com 1.10,2013-09-29 04:13:00,
2013-09-28 23:28:00,53.2,52.0,30.07,WNW,300,0.0,-999.0,97,-99.99,,,0.21,weatherlink.com 1.10,2013-09-29 04:28:00,
2013-09-28 23:43:00,53.1,52.0,30.07,WNW,300,0.0,-999.0,97,-99.99,,,0.21,weatherlink.com 1.10,2013-09-29 04:43:00,
2013-09-28 23:58:00,53.0,52.0,30.08,WNW,300,0.0,-999.0,97,-99.99,,,0.21,weatherlink.com 1.10,2013-09-29 04:58:00,